Вернуться в каталог

SL-8 R/B

АктивенPO
NORAD 16799·ROCKET BODY·🇷🇺 Russia

Запущен Jun 18, 1986 с Plesetsk Cosmodrome

Loading…

Ближайшие Пролёты (ближайшие 24 часа)

TLE

СвежийSource: Space-Track

Эпоха: Sep 13, 2026, 23:17 UTC

1 16799U 86047B   26256.97036904 -.00000047  00000-0 -61958-4 0  9992
2 16799  82.9147  80.1582 0066309 181.8864 178.2054 13.77613906955750

Отслеживайте SL-8 R/B в реальном времени с AllMySat

Download on the App Store